Location: Cambroso
(45.2833°N, 12.0850°E)
Time: 18:48:54
(UTC+00:00)

CZ-4C R/B - Pass Details

Date: 21 January 2021
Orbit: 617 x 1385 km, 63.4° (Epoch: 27 February)

Event Time Altitude Azimuth Distance (km) Brightness Sun altitude
Rises 17:42:39 0° 278° (W) 3,224 6.6 -17.2°
Reaches altitude 10° 17:45:38 10° 297° (WNW) 2,422 5.3 -17.7°
Maximum altitude 17:49:34 19° 342° (NNW) 2,027 4.3 -18.4°
Enters shadow 17:53:57 10° 25° (NNE) 2,775 4.6 -19.2°
